| time (UTC) | temp F | wind direction | speed MPH | gust MPH | rain 1hr in | rain 24hr in | rain mn in | humidity % | barometer mb |
| 20260506195207 | 56 | 206 | 7.0 | 12.0 | 0.02 | 0.03 | 0.03 | 96 | 1008.5 |
| 20260506193704 | 56 | 90 | 2.0 | 7.0 | 0.09 | 0.03 | 0.03 | 95 | 1008.5 |
| 20260506192200 | 58 | 10 | 3.0 | 10.0 | 0.00 | 0.01 | 0.01 | 91 | 1008.4 |
| 20260506190656 | 59 | 166 | 9.0 | 15.0 | 0.00 | 0.01 | 0.01 | 87 | 1008.9 |
| 20260506185152 | 60 | 270 | 8.0 | 22.0 | 0.00 | 0.01 | 0.01 | 87 | 1008.8 |
| 20260506183649 | 59 | 225 | 6.0 | 13.0 | 0.00 | 0.01 | 0.01 | 87 | 1009.0 |
| 20260506182145 | 60 | 206 | 4.0 | 13.0 | 0.00 | 0.01 | 0.01 | 86 | 1009.1 |
| 20260506180643 | 60 | 188 | 10.0 | 15.0 | 0.00 | 0.01 | 0.01 | 86 | 1009.1 |
| 20260506175138 | 59 | 180 | 3.0 | 12.0 | 0.00 | 0.01 | 0.01 | 86 | 1009.5 |
| 20260506173637 | 60 | 201 | 12.0 | 13.0 | 0.00 | 0.01 | 0.01 | 85 | 1009.8 |
| 20260506172133 | 61 | 56 | 2.0 | 14.0 | 0.00 | 0.01 | 0.01 | 84 | 1010.0 |
| 20260506170631 | 63 | 232 | 5.0 | 7.0 | 0.00 | 0.01 | 0.01 | 81 | 1009.7 |
| 20260506165127 | 64 | 228 | 4.0 | 12.0 | 0.00 | 0.01 | 0.01 | 80 | 1010.0 |
| 20260506163623 | 62 | 323 | 4.0 | 13.0 | 0.00 | 0.01 | 0.01 | 84 | 1010.2 |
| 20260506162122 | 61 | 315 | 2.0 | 11.0 | 0.00 | 0.01 | 0.01 | 85 | 1010.5 |
| 20260506160619 | 62 | 86 | 2.0 | 13.0 | 0.00 | 0.01 | 0.01 | 83 | 1010.8 |
| 20260506155116 | 64 | 120 | 3.0 | 13.0 | 0.00 | 0.01 | 0.01 | 81 | 1010.9 |
| 20260506152329 | 62 | 250 | 6.0 | 15.0 | 0.00 | 0.01 | 0.01 | 84 | 1011.0 |
| 20260506150826 | 62 | 222 | 12.0 | 18.0 | 0.00 | 0.01 | 0.01 | 83 | 1011.2 |
| 20260506145322 | 61 | 207 | 4.0 | 15.0 | 0.00 | 0.01 | 0.01 | 85 | 1011.2 |
| 20260506143821 | 62 | 196 | 2.0 | 10.0 | 0.00 | 0.01 | 0.01 | 84 | 1011.0 |
| 20260506142319 | 61 | 206 | 3.0 | 9.0 | 0.00 | 0.01 | 0.01 | 86 | 1011.2 |
| 20260506140818 | 61 | 199 | 7.0 | 12.0 | 0.00 | 0.01 | 0.01 | 85 | 1010.8 |
| 20260506135314 | 60 | 341 | 4.0 | 12.0 | 0.00 | 0.01 | 0.01 | 86 | 1010.8 |
| 20260506133810 | 60 | 187 | 5.0 | 17.0 | 0.00 | 0.01 | 0.01 | 87 | 1011.1 |
| 20260506132307 | 61 | 178 | 4.0 | 10.0 | 0.00 | 0.01 | 0.01 | 86 | 1011.1 |
| 20260506130803 | 60 | 213 | 11.0 | 11.0 | 0.00 | 0.01 | 0.01 | 86 | 1011.2 |
| 20260506125304 | 59 | 290 | 0.0 | 10.0 | 0.00 | 0.01 | 0.01 | 88 | 1011.2 |
| 20260506123800 | 60 | 252 | 9.0 | 12.0 | 0.02 | 0.01 | 0.01 | 88 | 1011.1 |
| 20260506122258 | 59 | 215 | 9.0 | 14.0 | 0.00 | 0.00 | 0.00 | 90 | 1011.4 |
| 20260506120756 | 58 | 210 | 3.0 | 13.0 | 0.00 | 0.00 | 0.00 | 92 | 1011.4 |
| 20260506115255 | 57 | 243 | 10.0 | 19.0 | 0.00 | 0.00 | 0.00 | 93 | 1011.4 |
| 20260506113754 | 56 | 204 | 7.0 | 18.0 | 0.00 | 0.00 | 0.00 | 94 | 1011.5 |
| 20260506112251 | 56 | 277 | 3.0 | 19.0 | 0.00 | 0.00 | 0.00 | 94 | 1011.7 |
| 20260506110749 | 55 | 211 | 8.0 | 12.0 | 0.00 | 0.00 | 0.00 | 96 | 1011.5 |
| 20260506105245 | 55 | 251 | 4.0 | 11.0 | 0.00 | 0.00 | 0.00 | 95 | 1011.6 |
| 20260506103743 | 55 | 219 | 3.0 | 13.0 | 0.00 | 0.00 | 0.00 | 96 | 1011.4 |
| 20260506102242 | 55 | 166 | 0.0 | 11.0 | 0.00 | 0.00 | 0.00 | 96 | 1011.5 |
| 20260506100739 | 55 | 227 | 8.0 | 15.0 | 0.00 | 0.00 | 0.00 | 97 | 1011.2 |
| 20260506095237 | 55 | 200 | 11.0 | 14.0 | 0.00 | 0.00 | 0.00 | 97 | 1011.1 |
| 20260506093737 | 55 | 223 | 5.0 | 11.0 | 0.00 | 0.00 | 0.00 | 97 | 1011.2 |
| 20260506092235 | 55 | 204 | 10.0 | 14.0 | 0.00 | 0.00 | 0.00 | 97 | 1011.3 |
| 20260506090733 | 55 | 252 | 4.0 | 17.0 | 0.00 | 0.00 | 0.00 | 97 | 1011.3 |
| 20260506085228 | 55 | 227 | 6.0 | 11.0 | 0.00 | 0.00 | 0.00 | 97 | 1011.5 |
| 20260506083724 | 55 | 221 | 5.0 | 9.0 | 0.00 | 0.00 | 0.00 | 97 | 1011.6 |
| 20260506082220 | 54 | 197 | 8.0 | 8.0 | 0.00 | 0.00 | 0.00 | 97 | 1011.3 |
| 20260506080719 | 54 | 190 | 5.0 | 9.0 | 0.00 | 0.00 | 0.00 | 97 | 1011.6 |
| 20260506072211 | 55 | 206 | 3.0 | 6.0 | 0.00 | 0.00 | 0.00 | 95 | 1011.5 |
| 20260506070708 | 55 | 223 | 5.0 | 8.0 | 0.00 | 0.00 | 0.00 | 95 | 1011.5 |
| 20260506062200 | 55 | 297 | 2.0 | 9.0 | 0.00 | 0.00 | 0.00 | 94 | 1011.4 |
| 20260506060658 | 56 | 28 | 4.0 | 12.0 | 0.00 | 0.00 | 0.00 | 93 | 1011.5 |
| 20260506050649 | 57 | 183 | 3.0 | 13.0 | 0.00 | 0.00 | 0.00 | 90 | 1012.1 |
| 20260506043642 | 57 | 237 | 9.0 | 17.0 | 0.00 | 0.00 | 0.00 | 90 | 1011.9 |
| 20260506042142 | 57 | 214 | 8.0 | 19.0 | 0.00 | 0.00 | 0.00 | 90 | 1012.2 |
| 20260506040641 | 56 | 188 | 3.0 | 16.0 | 0.00 | 0.00 | 0.00 | 91 | 1012.1 |
| 20260506035137 | 55 | 221 | 5.0 | 13.0 | 0.00 | 0.01 | 0.01 | 92 | 1012.0 |
| 20260506033634 | 54 | 213 | 2.0 | 4.0 | 0.00 | 0.01 | 0.01 | 92 | 1011.9 |
| 20260506032131 | 54 | 253 | 7.0 | 12.0 | 0.00 | 0.01 | 0.01 | 91 | 1011.9 |
| 20260506030629 | 55 | 282 | 2.0 | 11.0 | 0.00 | 0.01 | 0.01 | 90 | 1011.6 |
| 20260506025124 | 55 | 207 | 9.0 | 9.0 | 0.00 | 0.01 | 0.01 | 89 | 1011.9 |
| 20260506023621 | 55 | 180 | 5.0 | 11.0 | 0.00 | 0.01 | 0.01 | 87 | 1011.9 |
| 20260506022118 | 56 | 225 | 6.0 | 9.0 | 0.00 | 0.01 | 0.01 | 86 | 1012.2 |
| 20260506020615 | 56 | 189 | 2.0 | 16.0 | 0.00 | 0.01 | 0.01 | 84 | 1011.8 |
| 20260506015113 | 56 | 133 | 3.0 | 9.0 | 0.00 | 0.01 | 0.01 | 84 | 1011.8 |
| 20260506013611 | 57 | 212 | 0.0 | 7.0 | 0.00 | 0.01 | 0.01 | 84 | 1011.9 |
| 20260506012105 | 57 | 180 | 4.0 | 6.0 | 0.00 | 0.01 | 0.01 | 84 | 1011.8 |
| 20260506010605 | 56 | 257 | 2.0 | 6.0 | 0.00 | 0.01 | 0.01 | 85 | 1011.9 |
| 20260506005100 | 57 | 187 | 6.0 | 9.0 | 0.00 | 0.01 | 0.01 | 83 | 1011.5 |
| 20260506003556 | 58 | 217 | 17.0 | 18.0 | 0.00 | 0.01 | 0.01 | 83 | 1011.2 |
| 20260506002056 | 56 | 232 | 4.0 | 10.0 | 0.00 | 0.01 | 0.01 | 86 | 1011.0 |
| 20260506000553 | 55 | 270 | 1.0 | 9.0 | 0.00 | 0.01 | 0.01 | 87 | 1010.6 |
| 20260505235051 | 56 | 199 | 6.0 | 8.0 | 0.00 | 0.01 | 0.01 | 86 | 1010.0 |
| 20260505233548 | 56 | 195 | 2.0 | 11.0 | 0.00 | 0.01 | 0.01 | 86 | 1009.8 |
| 20260505232046 | 57 | 222 | 3.0 | 10.0 | 0.00 | 0.01 | 0.01 | 84 | 1009.8 |
| 20260505230544 | 57 | 348 | 2.0 | 9.0 | 0.00 | 0.01 | 0.01 | 84 | 1009.9 |
| 20260505225039 | 58 | 94 | 2.0 | 12.0 | 0.05 | 0.01 | 0.01 | 83 | 1010.0 |
| 20260505223536 | 58 | 48 | 2.0 | 11.0 | 0.00 | 0.00 | 0.00 | 83 | 1009.8 |
| 20260505222036 | 58 | 90 | 0.0 | 10.0 | 0.00 | 0.00 | 0.00 | 83 | 1009.7 |
| 20260505220533 | 58 | 170 | 8.0 | 12.0 | 0.00 | 0.00 | 0.00 | 83 | 1009.9 |
| 20260505215032 | 59 | 205 | 9.0 | 19.0 | 0.00 | 0.00 | 0.00 | 81 | 1009.6 |
| 20260505213530 | 59 | 249 | 13.0 | 19.0 | 0.00 | 0.00 | 0.00 | 80 | 1009.7 |
| 20260505212025 | 60 | 180 | 2.0 | 9.0 | 0.00 | 0.00 | 0.00 | 81 | 1009.7 |
| 20260505210522 | 61 | 292 | 2.0 | 8.0 | 0.00 | 0.00 | 0.00 | 77 | 1009.6 |
| 20260505205020 | 61 | 200 | 5.0 | 10.0 | 0.00 | 0.00 | 0.00 | 77 | 1009.3 |
| 20260505203517 | 61 | 179 | 6.0 | 14.0 | 0.00 | 0.00 | 0.00 | 78 | 1009.6 |
| 20260505202018 | 60 | 57 | 2.0 | 12.0 | 0.00 | 0.00 | 0.00 | 81 | 1009.6 |
| 20260505200516 | 61 | 116 | 4.0 | 14.0 | 0.00 | 0.00 | 0.00 | 78 | 1009.3 |